Location: Karcze
(52.0945°N, 22.4786°E)
Time: 09:02:12
(UTC+00:00)

SR - All Passes

Search period start: 31 July 2021 00:00
Search period end: 10 August 2021 00:00
Orbit: 577 x 877 km, 66.7° (Epoch: 30 July)

Date Brightness Start Highest point End Pass type
(mag) Time Alt. Az. Time Alt. Az. Time Alt. Az.
31 Jul - 04:39:44 10° S 04:45:13 45° ESE 04:50:24 10° NE daylight
31 Jul - 06:21:50 10° WSW 06:27:22 47° NW 06:32:33 10° NNE daylight
31 Jul - 08:06:38 10° WNW 08:10:39 20° NNW 08:14:28 10° NNE daylight
31 Jul - 09:51:20 10° NNW 09:54:40 17° N 09:57:49 10° NE daylight
31 Jul - 11:33:51 10° NNW 11:38:20 30° NNE 11:42:30 10° E daylight
31 Jul - 13:15:55 10° NW 13:20:51 68° WSW 13:25:20 10° SSE daylight
31 Jul - 15:00:35 10° W 15:01:49 11° WSW 15:03:01 10° WSW daylight
01 Aug - 03:50:54 10° SSE 03:55:38 27° ESE 04:00:10 10° ENE daylight
01 Aug - 05:31:36 10° SW 05:37:23 73° NW 05:42:46 10° NE daylight
01 Aug - 07:15:42 10° W 07:20:17 25° NNW 07:24:37 10° NNE daylight
01 Aug - 09:00:52 10° NW 09:04:08 16° N 09:07:16 10° NE daylight
01 Aug - 10:44:01 10° NNW 10:48:03 22° NNE 10:51:49 10° ENE daylight
01 Aug - 12:26:02 10° NW 12:31:02 70° NE 12:35:34 10° SE daylight
01 Aug - 14:08:56 10° WNW 14:12:32 21° WSW 14:15:55 10° SSW daylight
02 Aug - 03:03:01 10° SE 03:06:13 15° ESE 03:09:20 10° ENE daylight
02 Aug - 04:41:46 10° SSW 04:47:31 71° SE 04:52:55 10° NE daylight
02 Aug - 06:24:55 10° W 06:30:02 34° NW 06:34:50 10° NNE daylight
02 Aug - 08:10:05 10° NW 08:13:37 17° N 08:17:00 10° NNE daylight
02 Aug - 09:54:04 10° NNW 09:57:38 18° NNE 10:01:01 10° ENE daylight
02 Aug - 11:36:14 10° NNW 11:41:02 42° NE 11:45:26 10° ESE daylight
02 Aug - 13:18:33 10° NW 13:23:03 39° WSW 13:27:14 10° S daylight
03 Aug - 03:52:25 10° S 03:57:49 43° ESE 04:02:56 10° NE daylight
03 Aug - 05:34:23 10° WSW 05:39:55 49° NW 05:45:06 10° NNE daylight
03 Aug - 07:19:08 10° WNW 07:23:10 20° NNW 07:27:00 10° NNE daylight
03 Aug - 09:03:53 10° NNW 09:07:09 16° N 09:10:15 10° NE daylight
03 Aug - 10:46:27 10° NNW 10:50:51 29° NNE 10:54:57 10° E daylight
03 Aug - 12:28:30 10° NW 12:33:25 72° SW 12:37:54 10° SSE daylight
03 Aug - 14:12:48 10° W 14:14:26 12° WSW 14:16:02 10° SW daylight
04 Aug - 03:03:39 10° SSE 03:08:15 25° ESE 03:12:40 10° ENE daylight
04 Aug - 04:44:12 10° SW 04:49:57 76° NW 04:55:19 10° NE daylight
04 Aug - 06:28:12 10° W 06:32:48 26° NNW 06:37:09 10° NNE daylight
04 Aug - 08:13:23 10° NW 08:16:38 16° N 08:19:43 10° NE daylight
04 Aug - 09:56:37 10° NNW 10:00:33 22° NNE 10:04:14 10° ENE daylight
04 Aug - 11:38:38 10° NW 11:43:34 66° NE 11:48:05 10° SE daylight
04 Aug - 13:21:26 10° WNW 13:25:07 22° WSW 13:28:36 10° SSW daylight
05 Aug - 02:15:55 10° SE 02:18:50 14° ESE 02:21:41 10° ENE visible
05 Aug - 03:54:24 10° SSW 04:00:07 68° SE 04:05:28 10° NE daylight
05 Aug - 05:37:26 10° WSW 05:42:34 35° NW 05:47:23 10° NNE daylight
05 Aug - 07:22:35 10° NW 07:26:07 17° NNW 07:29:29 10° NNE daylight
05 Aug - 09:06:39 10° NNW 09:10:08 18° NNE 09:13:26 10° ENE daylight
05 Aug - 10:48:50 10° NNW 10:53:33 40° NE 10:57:54 10° ESE daylight
05 Aug - 12:31:06 10° NW 12:35:39 41° WSW 12:39:50 10° S daylight
06 Aug - 03:05:05 10° S 03:10:25 40° ESE 03:15:27 10° NE daylight
06 Aug - 04:46:55 10° WSW 04:52:28 51° NW 04:57:38 10° NNE daylight
06 Aug - 06:31:37 10° WNW 06:35:40 21° NNW 06:39:31 10° NNE daylight
06 Aug - 08:16:26 10° NNW 08:19:39 16° N 08:22:41 10° NE daylight
06 Aug - 09:59:02 10° NNW 10:03:22 28° NNE 10:07:24 10° E daylight
06 Aug - 11:41:04 10° NW 11:45:59 77° SW 11:50:26 10° SSE daylight
06 Aug - 13:25:06 10° W 13:27:03 12° WSW 13:28:56 10° SW daylight
07 Aug - 02:16:24 10° SSE 02:20:52 24° ESE 02:25:08 10° ENE visible
07 Aug - 03:56:46 10° SW 04:02:31 80° NW 04:07:52 10° NE daylight
07 Aug - 05:40:42 10° W 05:45:19 26° NNW 05:49:42 10° NNE daylight
07 Aug - 07:25:55 10° NW 07:29:07 16° N 07:32:11 10° NE daylight
07 Aug - 09:09:12 10° NNW 09:13:03 21° NNE 09:16:40 10° ENE daylight
07 Aug - 10:51:13 10° NW 10:56:07 62° NE 11:00:35 10° SE daylight
07 Aug - 12:33:56 10° WNW 12:37:43 24° WSW 12:41:16 10° SSW daylight
08 Aug - 01:28:52 10° SE 01:31:28 13° ESE 01:34:01 10° ENE visible
08 Aug - 03:07:02 10° SSW 03:12:41 64° ESE 03:18:00 10° NE daylight
08 Aug - 04:49:56 10° WSW 04:55:06 36° NW 04:59:56 10° NNE daylight
08 Aug - 06:35:04 10° NW 06:38:37 17° NNW 06:42:00 10° NNE daylight
08 Aug - 08:19:14 10° NNW 08:22:37 17° NNE 08:25:51 10° NE daylight
08 Aug - 10:01:25 10° NNW 10:06:05 38° NE 10:10:22 10° ESE daylight
08 Aug - 11:43:39 10° NW 11:48:13 44° WSW 11:52:26 10° S daylight
09 Aug - 02:17:45 10° S 02:23:01 38° ESE 02:27:58 10° NE visible
09 Aug - 03:59:28 10° WSW 04:05:02 53° NW 04:10:12 10° NNE daylight
09 Aug - 05:44:06 10° WNW 05:48:11 21° NNW 05:52:02 10° NNE daylight
09 Aug - 07:28:59 10° NNW 07:32:07 16° N 07:35:06 10° NE daylight
09 Aug - 09:11:38 10° NNW 09:15:53 27° NNE 09:19:50 10° E daylight
09 Aug - 10:53:39 10° NW 10:58:32 81° SW 11:02:59 10° SSE daylight
09 Aug - 12:37:27 10° WNW 12:39:39 13° WSW 12:41:47 10° SW daylight
